Location: Vancouver
(49.2500°N, 123.1330°W)
Time: 22:50:29
(UTC-07:00)

A-11 Canister half - Visible Passes

Search period start: 31 March 2015 00:00
Search period end: 10 April 2015 00:00
Orbit: 1527 x 1682 km, 47.3° (Epoch: 30 March)

Date Brightness Start Highest point End Pass type
(mag) Time Alt. Az. Time Alt. Az. Time Alt. Az.
31 Mar 10.7 00:40:22 10° W 00:43:19 14° WSW 00:43:19 14° WSW visible
31 Mar 9.2 20:06:15 10° W 20:16:20 77° S 20:26:04 10° ESE visible
31 Mar 9.5 22:11:28 10° WNW 22:20:48 47° SSW 22:24:39 33° SSE visible
01 Apr 10.6 00:18:30 10° W 00:22:58 16° WSW 00:22:58 16° WSW visible
01 Apr 9.5 21:49:52 10° WNW 21:59:17 48° SSW 22:04:21 27° SSE visible
01 Apr 10.5 23:56:40 10° W 00:02:36 17° SW 00:02:39 17° SW visible
02 Apr 9.5 21:28:17 10° WNW 21:37:46 50° SSW 21:44:03 22° SSE visible
02 Apr 10.5 23:34:53 10° W 23:41:08 18° SW 23:42:22 18° SW visible
03 Apr 9.6 21:06:41 10° WNW 21:16:15 52° SSW 21:23:48 16° SE visible
03 Apr 10.4 23:13:06 10° W 23:19:41 20° SW 23:22:07 18° SSW visible
04 Apr 9.6 20:45:06 10° WNW 20:54:43 53° SSW 21:03:35 12° SE visible
04 Apr 10.5 22:51:22 10° W 22:58:13 21° SW 23:01:55 16° SSW visible
05 Apr 9.6 20:23:30 10° WNW 20:33:11 55° SSW 20:42:33 10° SE visible
05 Apr 10.5 22:29:37 10° W 22:36:45 22° SW 22:41:45 14° SSW visible
06 Apr 10.5 22:07:55 10° W 22:15:17 23° SW 22:21:38 11° S visible
07 Apr 10.5 21:46:13 10° W 21:53:48 25° SW 22:00:56 10° S visible
08 Apr 10.5 21:24:32 10° W 21:32:19 26° SW 21:39:41 10° S visible
09 Apr 10.5 21:02:52 10° W 21:10:51 27° SW 21:18:25 10° S visible
